Weather History for Rhinelander, WI

Change the Weather History Date:

Tuesday, October 15, 2013

  Actual Average Record
Temperature  
Mean Temperature 49 °F 44 °F  
Max Temperature 52 °F 54 °F 84 °F (1947)
Min Temperature 45 °F 34 °F 17 °F (2002)
Degree Days  
Heating Degree Days 16 21  
Month to date heating degree days 190 280  
Since 1 July heating degree days 642 712  
Cooling Degree Days 0 0  
Month to date cooling degree days 0 0  
Year to date cooling degree days 281 259  
Moisture  
Dew Point 48 °F    
Average Humidity 91    
Maximum Humidity 100    
Minimum Humidity 82    
Precipitation  
Precipitation 0.79 in 0.10 in 2.03 in (1966)
Month to date precipitation 2.87 1.69  
Year to date precipitation 31.83 26.77  
Snow  
Snow 0.00 in - T in (2009)
Month to date snowfall 0.0  
Since 1 July snowfall 0.0  
Since 1 September snowfall 0.0  
Snow Depth 0.00 in    
Sea Level Pressure  
Sea Level Pressure 29.82 in    
Wind  
Wind Speed 8 mph (SE)    
Max Wind Speed 18 mph    
Max Gust Speed 23 mph    
Visibility 5 miles    
Events Rain    
T = Trace of Precipitation, MM = Missing Value Source: NWS Daily Summary

Daily Weather History Graph

Daily Weather History Graph

Search for Another Location

Airport:

Trip Planner

Search our weather history database for the weather conditions in past years. The results will help you decide how hot, cold, wet, or windy it might be!

Date:

Astronomy

Oct. 15, 2013 Rise Set
Actual Time 7:14 AM CDT 6:11 PM CDT
Civil Twilight 6:44 AM CDT 6:41 PM CDT
Nautical Twilight 6:10 AM CDT 7:16 PM CDT
Astronomical Twilight 5:35 AM CDT 7:50 PM CDT
Moon 4:24 PM CDT (10/15) 3:27 AM CDT (10/15)
Length of Visible Light 11h 56m
Length of Day
10h 57m
Waxing Gibbous, 88% of the Moon is Illuminated
Oct 15
Waxing Gibbous
Oct 18
Full
Oct 26
Last Quarter
Nov 3
New
Nov 9
First Quarter

Hourly Weather History & Observations

Time (CDT) Temp. Windchill Dew Point Humidity Pressure Visibility Wind Dir Wind Speed Gust Speed Precip Events Conditions
12:53 AM 45.0 °F 40.1 °F 39.9 °F 82% 30.18 in 10.0 mi ESE 9.2 mph - N/A   Clear
1:53 AM 45.0 °F 39.7 °F 39.9 °F 82% 30.15 in 10.0 mi ESE 10.4 mph - N/A   Clear
2:53 AM 46.0 °F 41.4 °F 41.0 °F 83% 30.11 in 10.0 mi ESE 9.2 mph - N/A   Scattered Clouds
3:53 AM 46.9 °F - 42.1 °F 83% 30.10 in 10.0 mi ESE 8.1 mph - N/A   Overcast
4:53 AM 46.0 °F 41.0 °F 43.0 °F 89% 30.07 in 10.0 mi East 10.4 mph - 0.01 in Rain Light Rain
5:53 AM 46.0 °F 40.6 °F 43.0 °F 89% 30.03 in 10.0 mi ESE 11.5 mph - 0.01 in Rain Light Rain
6:53 AM 46.0 °F 40.6 °F 44.1 °F 93% 29.98 in 10.0 mi ESE 11.5 mph 20.7 mph 0.05 in Rain Light Rain
7:03 AM 46.4 °F 41.1 °F 44.6 °F 93% 29.94 in 8.0 mi ESE 11.5 mph - 0.01 in Rain Rain
7:53 AM 46.9 °F - 46.0 °F 97% 29.95 in 5.0 mi ESE 10.4 mph 20.7 mph 0.09 in Rain Rain
8:53 AM 48.0 °F - 46.9 °F 96% 29.91 in 4.0 mi ESE 11.5 mph - 0.17 in Rain Heavy Rain
9:44 AM 48.2 °F - 46.4 °F 93% 29.86 in 8.0 mi ESE 17.3 mph 23.0 mph 0.12 in Rain Light Rain
9:53 AM 48.9 °F - 46.9 °F 93% 29.88 in 5.0 mi ESE 15.0 mph 23.0 mph 0.13 in Rain Rain
10:11 AM 48.2 °F - 48.2 °F 100% 29.86 in 2.5 mi ESE 12.7 mph 17.3 mph 0.02 in Rain Heavy Rain
10:14 AM 48.2 °F - 48.2 °F 100% 29.85 in 1.8 mi SE 10.4 mph 17.3 mph 0.02 in Rain Heavy Rain
10:27 AM 48.2 °F - 48.2 °F 100% 29.86 in 3.0 mi SE 9.2 mph - 0.03 in Rain Light Rain
10:53 AM 48.9 °F - 48.0 °F 97% 29.87 in 3.0 mi ESE 11.5 mph - 0.06 in Rain Light Rain
11:42 AM 50.0 °F - 48.2 °F 94% 29.83 in 1.8 mi ESE 10.4 mph - 0.10 in Rain Light Rain
11:53 AM 50.0 °F - 48.9 °F 96% 29.85 in 1.5 mi SE 8.1 mph - 0.11 in Rain Light Rain
12:09 PM 50.0 °F - 48.2 °F 94% 29.81 in 2.5 mi ESE 10.4 mph - 0.00 in Rain Light Rain
12:50 PM 51.8 °F - 50.0 °F 94% 29.79 in 3.0 mi SE 8.1 mph - 0.00 in   Overcast
12:53 PM 51.1 °F - 50.0 °F 96% 29.82 in 4.0 mi SE 6.9 mph - 0.00 in   Overcast
1:47 PM 51.8 °F - 50.0 °F 94% 29.77 in 1.8 mi SE 8.1 mph - 0.00 in Rain Light Rain
1:48 PM 51.1 °F - 50.0 °F 96% 29.79 in 1.8 mi SE 8.1 mph - 0.00 in Rain Light Rain
2:18 PM 51.8 °F - 50.0 °F 94% 29.75 in 2.0 mi SE 6.9 mph - 0.01 in Rain Light Rain
2:27 PM 51.8 °F - 51.8 °F 100% 29.75 in 1.5 mi ESE 8.1 mph - 0.02 in Rain Light Rain
2:39 PM 51.8 °F - 51.8 °F 100% 29.74 in 2.5 mi SE 6.9 mph - 0.02 in   Overcast
2:50 PM 51.8 °F - 51.8 °F 100% 29.73 in 4.0 mi SE 8.1 mph - 0.02 in   Overcast
2:53 PM 52.0 °F - 51.1 °F 97% 29.75 in 5.0 mi SE 5.8 mph - 0.02 in   Overcast
3:53 PM 52.0 °F - 51.1 °F 97% 29.74 in 4.0 mi SE 4.6 mph - N/A   Overcast
4:12 PM 51.8 °F - 51.8 °F 100% 29.72 in 2.5 mi SE 5.8 mph - N/A   Overcast
4:38 PM 51.8 °F - 51.8 °F 100% 29.72 in 3.0 mi ESE 4.6 mph - N/A   Overcast
4:53 PM 52.0 °F - 51.1 °F 97% 29.74 in 2.5 mi SE 4.6 mph - N/A   Overcast
5:39 PM 51.8 °F - 51.8 °F 100% 29.71 in 1.8 mi SE 3.5 mph - 0.02 in Rain Light Rain
5:45 PM 51.8 °F - 51.8 °F 100% 29.71 in 3.0 mi Calm Calm - 0.02 in Rain Light Rain
5:53 PM 52.0 °F - 51.1 °F 97% 29.73 in 2.0 mi SE 3.5 mph - 0.03 in Rain Light Rain
6:11 PM 51.8 °F - 51.8 °F 100% 29.71 in 1.8 mi Calm Calm - 0.00 in Rain Light Rain
6:22 PM 51.8 °F - 51.8 °F 100% 29.71 in 2.5 mi Calm Calm - 0.00 in Rain Light Rain
6:31 PM 51.8 °F - 51.8 °F 100% 29.71 in 4.0 mi Calm Calm - 0.00 in Rain Light Rain
6:53 PM 51.1 °F - 51.1 °F 100% 29.73 in 4.0 mi East 3.5 mph - 0.00 in Rain Light Rain
7:53 PM 52.0 °F - 51.1 °F 97% 29.72 in 5.0 mi Calm Calm - 0.01 in   Overcast
8:28 PM 50.0 °F - 48.2 °F 94% 29.71 in 9.0 mi WSW 8.1 mph - 0.00 in Rain Light Rain
8:53 PM 50.0 °F - 48.9 °F 96% 29.73 in 7.0 mi WSW 6.9 mph - 0.02 in Rain Light Rain
9:04 PM 50.0 °F - 48.2 °F 94% 29.71 in 10.0 mi WSW 9.2 mph - 0.00 in Rain Light Rain
9:13 PM 48.2 °F - 48.2 °F 100% 29.71 in 10.0 mi WSW 9.2 mph - 0.00 in Rain Light Rain
9:53 PM 48.0 °F - 46.9 °F 96% 29.74 in 5.0 mi WSW 8.1 mph - 0.02 in Rain Light Rain
10:34 PM 48.2 °F - 46.4 °F 93% 29.72 in 10.0 mi WSW 8.1 mph - 0.04 in Rain Light Rain
10:53 PM 48.0 °F - 46.9 °F 96% 29.73 in 10.0 mi WSW 5.8 mph - 0.04 in   Overcast
11:04 PM 48.2 °F - 46.4 °F 93% 29.71 in 10.0 mi WSW 6.9 mph - N/A   Overcast
11:53 PM 46.9 °F - 46.0 °F 97% 29.73 in 8.0 mi WSW 6.9 mph - 0.00 in Rain Light Rain